Theta_e
335 334 333 333 333 333 333 332 331 331 331 330 329 329 329 329 328 326 324 324 325 325 325 324 323 322 321 321 321 322 322 323 323 322 322 322 322 322 321 321 321 321 321 320 321 319 315 312 311 312 312 311 309 307 306 305 305 306 308 309 310 311 312 313 315 314 308 304 304 304 304 304 305 306 306 307 307 307 308 309 310 311 310 310 310
335 333 332 332 333 333 332 331 330 331 332 331 330 330 329 329 329 328 326 325 326 326 326 326 325 323 323 322 321 321 321 322 322 322 322 322 323 323 322 322 322 321 321 321 321 321 320 319 319 319 318 318 317 316 314 313 311 310 309 309 308 308 309 309 310 311 308 306 305 305 306 306 307 307 307 307 307 306 307 307 308 309 310 310 311
334 334 333 333 332 331 330 329 330 332 333 333 332 332 331 330 330 329 327 327 327 327 326 326 325 324 324 323 323 322 322 322 322 322 322 322 323 323 322 322 322 322 322 321 321 322 321 321 321 321 320 320 319 319 319 318 317 316 315 314 313 312 312 311 309 309 309 308 307 307 307 308 308 308 307 308 308 307 307 306 307 308 308 309 309
334 334 333 332 331 330 329 330 332 333 334 334 333 333 332 331 330 330 329 329 328 327 327 327 325 324 324 323 323 323 323 322 322 322 322 322 322 322 322 322 322 322 322 322 322 322 322 322 322 322 322 321 321 321 320 320 319 319 318 317 317 316 316 315 314 313 312 310 309 308 307 308 309 308 308 308 308 308 308 308 307 308 309 311 311
332 332 331 330 331 330 330 332 333 334 333 333 333 332 332 332 332 331 330 330 329 328 328 328 326 325 324 323 323 323 323 323 322 323 322 322 323 322 322 322 322 322 322 322 322 321 321 321 322 322 322 322 322 322 321 321 320 320 320 319 318 318 318 318 317 316 315 315 315 314 311 309 307 307 307 308 308 309 309 309 308 308 308 310 313
331 331 331 332 332 332 333 333 333 333 332 332 332 331 331 331 331 331 330 330 330 329 329 328 328 327 326 325 324 324 324 324 324 324 323 323 323 323 323 323 323 322 322 322 322 321 321 321 322 322 322 322 322 322 322 321 321 321 321 320 320 319 318 317 317 316 316 317 318 319 317 314 312 311 312 311 311 310 309 308 308 307 307 309 313
332 332 333 333 333 333 333 333 333 332 332 332 332 331 331 330 330 330 330 329 329 329 329 328 328 328 328 327 326 326 326 326 325 325 325 324 323 323 323 323 323 323 322 322 322 322 321 321 322 322 322 322 322 322 322 322 322 322 322 321 321 320 319 318 316 315 315 316 317 319 320 320 319 319 319 318 318 317 315 313 310 309 309 310 314
332 333 333 333 332 332 332 332 332 332 332 332 331 331 331 330 330 330 330 330 329 329 328 328 328 328 328 328 327 327 327 327 327 326 326 325 325 325 324 324 323 323 323 323 323 322 322 321 321 322 322 322 322 322 322 322 322 322 322 321 321 321 321 320 319 318 317 317 317 319 320 320 320 321 321 320 320 320 320 319 317 315 314 314 315
332 332 332 332 331 331 331 331 331 331 332 331 331 330 330 330 330 330 329 330 330 329 329 328 328 328 328 328 328 328 328 327 327 327 326 326 326 325 325 325 324 323 323 323 323 322 322 321 320 321 321 321 322 322 322 322 322 321 321 321 321 321 321 320 320 320 320 319 319 320 320 320 320 321 320 320 321 320 320 321 320 320 320 319 319
332 332 332 331 331 331 331 331 331 331 331 331 331 330 330 329 329 329 329 330 330 330 329 329 329 328 328 328 328 328 327 327 327 327 326 326 326 326 326 325 325 324 323 323 322 321 321 321 321 321 321 321 322 322 322 322 322 321 321 321 320 320 321 321 321 321 321 321 320 320 320 321 320 320 320 320 321 321 321 321 321 321 321 321 321
332 332 332 332 332 332 331 331 331 331 330 330 330 330 330 329 329 330 330 329 329 329 329 329 329 328 328 328 328 327 327 327 326 326 326 325 325 325 325 325 325 325 324 324 323 322 321 321 322 322 322 322 322 322 322 322 321 321 321 321 321 321 321 322 321 321 321 321 321 321 321 320 321 320 320 320 320 320 321 320 320 321 320 320 321
331 331 331 331 331 331 331 331 331 331 331 331 330 330 330 330 330 329 329 329 329 329 328 328 328 328 327 327 327 326 326 326 326 325 325 325 325 324 324 324 324 324 324 324 324 323 322 322 322 322 322 322 322 322 322 322 322 322 321 321 321 321 321 321 321 321 321 321 321 321 321 320 321 320 320 320 320 320 320 320 320 320 320 320 321
330 330 330 330 330 330 330 330 330 330 329 330 330 330 329 329 329 329 328 328 328 327 327 327 327 327 327 326 326 325 325 325 325 325 325 325 324 324 324 324 323 323 323 323 323 323 323 322 322 322 322 322 322 322 322 322 322 322 322 322 322 322 321 321 321 321 321 321 320 320 320 320 320 320 320 320 320 320 320 320 320 320 320 320 319
328 329 329 328 328 329 329 328 328 328 328 328 328 328 328 327 327 327 327 326 325 325 325 326 326 326 325 325 324 324 324 324 324 324 324 324 324 323 323 323 323 323 323 323 322 322 322 322 323 322 322 322 322 322 322 322 322 322 322 321 322 322 321 321 321 321 321 320 320 320 320 320 320 320 320 319 319 320 320 320 320 320 320 320 319
325 326 327 327 327 327 326 327 326 326 325 325 325 325 325 324 324 324 324 324 323 323 323 324 324 324 323 323 323 323 323 322 321 321 321 321 320 320 321 321 322 322 322 322 321 321 321 321 321 322 321 321 321 321 321 321 321 321 321 321 321 321 321 321 321 321 321 320 320 320 320 320 320 320 320 320 320 320 320 320 320 320 320 320 319
323 324 324 324 324 323 323 323 322 321 320 319 319 319 319 319 320 321 321 322 321 321 321 321 322 321 321 321 321 321 320 319 318 317 317 317 316 316 317 317 318 319 319 320 319 319 319 319 320 320 320 320 320 320 320 320 320 320 320 320 320 320 320 320 320 320 320 320 320 320 320 320 319 319 319 319 319 319 319 319 319 319 318 318 317
320 322 323 321 320 320 320 320 319 318 317 316 314 314 315 316 317 317 318 318 318 318 318 318 318 318 318 317 317 316 316 316 315 315 314 314 313 313 314 314 314 315 316 316 316 317 317 317 317 318 318 318 317 317 317 317 317 317 317 317 317 317 318 318 318 318 318 318 318 318 318 318 318 318 317 317 316 316 316 316 316 316 315 315 314
317 319 321 321 320 320 320 319 318 318 316 315 313 313 314 315 315 314 314 314 314 315 316 315 314 313 312 313 314 314 313 312 311 311 310 310 309 310 311 312 313 313 314 314 314 314 314 314 315 315 314 314 314 313 313 313 313 313 313 313 313 314 314 314 314 314 315 315 316 317 317 316 316 315 315 314 313 313 313 312 312 312 313 313 313
313 315 317 318 320 320 319 319 318 317 316 315 314 314 315 315 315 314 312 311 312 312 312 311 310 309 307 308 309 309 308 307 306 306 306 306 307 308 309 310 311 312 312 312 312 312 312 311 311 311 310 310 310 310 310 311 311 311 311 311 311 312 312 312 312 312 312 313 313 314 313 313 312 311 311 310 310 310 309 309 310 310 310 311 311
311 311 312 314 317 318 318 318 318 317 316 315 314 314 315 315 316 315 314 312 312 312 311 310 309 309 308 307 306 305 304 304 304 303 304 305 306 307 308 308 310 311 311 310 310 309 309 308 307 306 305 305 305 305 306 307 307 308 309 310 310 310 310 310 310 310 311 311 310 310 310 309 309 308 308 308 308 308 308 308 308 308 308 308 308
311 310 310 311 313 316 316 317 317 317 317 315 313 313 314 314 314 315 315 315 314 313 312 311 311 310 310 309 308 306 303 302 303 303 303 304 305 306 306 306 307 308 308 307 306 306 305 305 305 305 305 304 304 304 303 303 303 304 305 306 307 308 308 308 309 308 308 308 308 307 307 307 306 306 306 306 306 306 306 306 306 306 306 306 307
310 309 308 308 309 311 313 314 315 316 316 316 314 313 313 313 313 313 314 315 314 314 313 312 312 311 310 310 310 309 305 302 302 303 303 303 304 305 305 305 305 305 305 305 306 306 305 305 305 305 305 306 306 305 305 304 303 303 303 303 304 305 305 306 306 306 306 306 306 306 306 305 305 305 305 305 305 305 305 305 305 305 305 305 305
311 310 309 309 309 309 309 310 311 311 312 313 313 313 313 314 313 313 313 313 313 313 313 313 313 312 311 310 310 310 308 305 303 303 303 303 303 303 304 304 305 305 305 305 306 307 307 307 307 306 306 305 306 306 305 305 304 303 303 303 303 304 304 304 304 305 305 305 305 305 305 305 305 304 304 304 304 305 305 305 306 305 305 305 305
313 312 311 311 310 310 310 310 310 310 309 309 308 309 310 311 310 311 312 313 313 312 312 312 312 312 311 311 310 310 309 308 307 304 302 302 303 303 303 303 303 304 305 306 306 307 308 308 308 308 307 306 306 305 305 305 304 303 303 303 303 304 304 304 305 305 305 305 304 304 304 304 303 303 302 303 303 303 303 305 306 305 305 305 304
311 311 311 311 311 310 309 309 310 310 310 309 308 307 307 307 306 307 308 310 310 311 312 312 312 312 311 311 310 310 309 309 309 307 303 301 302 304 303 304 304 305 306 307 307 308 308 308 308 308 307 307 306 306 305 305 304 303 303 304 303 303 304 305 305 305 305 304 304 304 303 302 302 302 302 303 303 301 301 303 305 304 304 304 303
309 309 309 309 310 309 308 308 309 309 310 311 310 308 307 307 307 306 306 306 306 306 308 309 310 310 310 310 310 310 310 309 309 309 305 301 301 304 305 306 307 307 307 308 308 308 309 309 309 308 308 307 307 307 306 306 305 304 304 304 304 303 303 304 305 305 305 304 303 303 303 301 301 301 302 303 303 302 300 301 304 304 304 305 305
308 308 308 308 308 308 308 307 307 308 310 310 310 310 309 307 307 307 307 306 305 304 304 304 304 305 306 307 307 306 306 306 306 306 304 301 300 303 305 306 307 308 308 308 309 309 309 309 309 309 309 308 308 308 307 307 306 305 304 304 304 303 303 303 304 303 303 303 302 302 302 301 300 300 302 303 303 302 301 302 304 304 304 305 305
308 308 307 307 307 307 308 307 306 307 308 309 309 310 309 308 307 307 307 307 306 305 304 304 303 303 303 303 303 301 301 301 302 302 301 300 300 302 304 305 306 307 308 309 309 309 309 309 309 309 309 309 309 309 308 308 307 307 306 305 304 303 303 302 302 302 301 301 301 301 300 300 299 300 301 302 303 302 302 303 303 303 303 303 302
307 307 307 307 306 306 306 307 306 306 307 308 308 308 308 307 307 307 307 307 306 306 305 305 305 304 304 303 303 302 302 302 301 300 300 300 301 302 303 304 305 306 307 308 308 309 309 309 309 309 309 309 309 308 309 308 308 307 307 306 306 304 303 302 302 302 302 301 301 300 300 300 300 300 300 301 302 302 302 302 302 301 301 302 301
305 305 306 306 306 305 305 306 306 306 307 307 307 307 307 307 306 306 306 306 306 306 306 305 305 305 305 304 304 304 304 303 303 302 300 300 301 302 303 303 304 306 306 305 305 305 307 308 308 308 307 307 306 307 307 308 308 308 308 308 307 305 303 302 302 302 302 302 301 301 300 300 300 300 300 301 301 301 301 301 301 301 300 301 301
305 304 304 304 306 306 305 305 306 307 307 307 307 307 307 307 307 307 306 306 306 306 306 305 305 305 305 305 304 304 304 304 304 303 302 300 300 301 303 303 304 305 304 303 303 304 305 306 306 305 304 304 305 306 306 306 307 307 307 308 308 307 304 302 302 303 303 303 302 301 301 301 301 301 300 300 301 301 301 301 301 301 300 300 300
307 307 306 306 306 306 305 306 306 307 307 307 307 307 307 306 306 306 306 306 306 306 306 305 305 305 305 305 305 304 304 304 304 304 302 300 299 300 301 302 304 304 303 302 302 304 305 305 304 304 303 304 304 305 305 306 305 306 306 306 308 308 305 303 303 303 303 303 303 303 302 301 300 300 300 300 300 300 301 301 301 301 300 299 299
308 308 308 308 308 307 306 306 306 306 306 306 306 306 306 305 305 305 305 305 305 305 306 306 305 304 304 305 305 304 304 304 304 304 302 300 299 299 299 300 302 303 303 302 302 303 303 303 303 302 302 303 303 303 304 304 304 304 304 304 305 307 306 304 303 304 304 304 304 304 304 302 301 301 301 301 300 300 300 300 301 301 300 299 299
309 309 309 309 309 309 308 306 306 306 306 306 306 306 306 306 305 305 305 305 304 303 304 304 304 304 304 305 305 305 304 304 303 303 302 301 301 301 300 300 301 301 302 302 302 302 302 302 302 302 302 302 302 302 302 303 302 302 303 303 304 306 307 305 305 305 306 305 304 303 303 303 302 301 301 301 301 301 301 301 300 300 300 300 300
310 310 310 310 309 310 309 308 307 307 306 306 306 306 306 306 306 306 306 305 304 302 302 303 304 304 304 305 305 305 305 304 303 303 302 301 301 302 301 301 301 301 302 302 302 302 302 302 302 302 302 302 302 301 301 302 301 301 302 302 304 305 306 306 305 305 305 304 303 302 302 302 302 302 301 301 301 301 301 301 300 300 300 300 300
310 311 311 310 310 310 310 310 309 309 308 308 307 307 307 307 307 306 306 306 305 303 302 302 304 304 304 304 304 304 305 304 303 302 302 301 301 302 302 302 302 302 302 302 302 302 302 301 301 301 301 301 301 301 301 301 301 301 301 301 302 302 303 302 302 302 303 303 302 302 302 302 302 301 301 301 301 301 301 301 300 300 300 300 300
311 311 311 311 311 310 310 310 310 309 309 308 308 308 308 308 308 307 307 307 306 305 304 303 303 303 303 304 304 304 304 304 302 301 301 301 301 301 301 302 301 301 301 302 302 302 301 301 301 301 301 300 300 300 300 300 300 300 300 300 300 300 300 300 300 300 301 301 301 301 302 301 301 302 301 301 301 301 301 301 300 300 300 300 299
311 311 311 311 311 311 311 311 311 310 310 309 309 309 308 308 308 308 307 307 307 307 306 305 304 303 303 303 304 304 304 304 302 301 301 301 301 301 301 301 301 301 301 301 301 301 300 300 300 300 300 300 300 299 299 299 299 299 299 299 299 299 299 299 299 299 299 299 299 300 300 300 300 300 300 301 301 301 301 301 300 300 300 300 300
311 311 311 311 311 311 311 311 311 311 310 310 310 309 309 309 309 308 308 308 307 306 306 306 305 304 304 303 303 303 304 303 302 301 301 301 301 301 301 301 301 300 300 300 300 299 299 299 299 299 299 299 299 299 299 298 298 298 298 297 297 297 298 298 298 298 298 298 298 298 298 298 298 297 297 297 298 298 298 298 298 299 299 300 300
310 310 310 310 310 310 310 310 310 310 310 310 309 309 309 309 309 308 308 307 307 306 306 305 305 304 304 303 303 303 303 303 303 302 301 301 301 301 301 300 300 299 299 299 298 299 298 298 298 298 299 298 298 298 298 298 297 297 296 296 296 296 297 297 297 297 298 298 298 298 297 297 296 294 293 293 294 295 296 296 297 297 298 298 299
307 307 307 307 307 307 308 308 309 309 309 309 309 308 308 308 308 307 307 306 305 305 305 304 304 304 304 303 303 302 303 303 303 301 301 301 301 300 300 299 299 298 298 298 298 298 298 298 298 298 298 298 298 297 297 297 296 295 295 295 296 296 296 296 296 297 298 297 297 297 297 296 294 292 291 290 291 293 294 295 295 296 297 297 298
306 306 306 306 306 306 306 306 306 306 306 307 307 307 307 307 307 307 306 305 304 304 304 304 304 304 303 303 303 303 303 303 302 301 301 300 300 299 299 298 298 298 297 297 297 297 298 298 298 298 298 298 297 297 297 297 295 295 295 295 294 294 295 296 296 297 297 297 296 296 296 295 294 292 291 290 289 290 292 293 293 294 295 296 296
304 304 304 304 304 304 304 304 304 304 304 304 304 304 305 305 306 306 305 305 305 305 305 305 304 304 303 302 303 303 302 302 301 301 300 299 298 298 298 298 297 297 297 297 297 297 297 297 297 297 297 297 297 297 297 296 295 295 295 294 293 293 295 295 295 295 295 295 295 295 295 294 294 293 291 290 289 290 291 293 294 294 295 296 296
300 300 301 301 301 301 301 302 302 303 303 303 303 303 303 304 305 305 305 305 305 305 305 305 305 304 303 302 302 302 302 301 300 299 299 298 297 297 297 297 297 297 297 297 297 297 297 297 297 297 297 297 297 297 296 296 295 295 295 294 293 293 294 295 294 294 294 293 294 294 293 293 293 292 291 289 289 290 292 293 294 294 295 295 296
297 297 298 298 298 298 298 299 300 301 302 303 303 302 302 303 304 304 304 305 305 305 305 305 304 303 302 301 301 301 301 300 299 298 298 297 297 297 297 297 297 297 297 297 297 297 296 296 296 296 296 296 296 296 295 295 295 294 294 294 294 294 294 294 293 293 292 292 292 292 292 292 292 292 291 289 289 290 292 294 294 294 295 295 295
297 297 297 297 298 298 298 299 300 301 302 303 303 302 302 303 304 304 304 304 304 304 304 304 304 303 302 302 302 301 300 298 297 297 297 297 297 298 297 297 297 297 298 298 297 296 296 296 295 295 295 295 295 295 295 295 294 294 294 294 295 295 295 294 294 293 292 292 292 292 292 292 291 291 291 290 289 289 290 292 293 294 294 294 294
297 297 298 298 299 300 301 301 302 303 303 303 303 303 303 303 303 303 303 303 303 303 303 303 303 303 302 301 301 300 298 297 297 297 296 297 297 297 297 297 297 298 298 298 297 297 296 295 295 294 294 295 295 295 295 294 294 294 295 295 295 295 295 294 294 294 293 292 292 292 292 292 291 291 291 291 290 289 289 289 291 292 293 293 293
297 298 299 300 300 300 301 302 302 302 303 303 303 303 303 303 303 302 302 302 303 303 303 303 303 302 300 299 299 298 297 296 296 296 296 297 297 297 297 297 297 297 297 297 296 295 295 294 294 294 294 294 294 294 294 294 294 294 295 295 294 294 294 294 293 293 293 292 292 292 291 291 291 290 290 290 290 289 289 288 288 289 291 292 292
298 299 299 299 299 299 300 300 301 301 301 301 301 301 301 301 302 302 302 302 303 303 302 301 300 299 298 297 297 297 296 296 296 296 296 296 297 297 298 297 296 295 295 295 294 294 294 294 294 294 294 294 293 293 293 293 294 294 294 294 294 293 293 293 292 292 292 292 292 291 291 290 290 290 290 290 289 289 289 288 287 287 288 289 290
298 298 298 298 298 299 299 299 299 299 299 299 299 299 299 300 300 301 301 301 301 301 300 299 298 297 297 296 296 296 296 296 295 296 296 296 297 297 298 297 295 295 294 294 293 293 293 293 293 294 293 293 293 293 293 293 293 293 293 293 293 292 292 291 291 291 291 291 291 291 290 290 290 289 289 289 289 289 289 288 287 287 286 286 287
297 298 298 298 298 298 298 297 297 297 297 297 297 297 297 297 297 298 297 297 297 297 297 297 297 296 296 296 295 295 295 295 295 296 296 296 296 296 296 295 294 294 294 293 293 293 293 293 293 294 294 294 294 293 293 293 293 293 292 292 291 291 291 291 291 291 291 291 290 290 289 289 289 289 289 288 288 288 288 287 287 286 286 286 285
Wind_Speed
20 20 22 22 22 21 20 18 18 20 22 25 25 23 21 20 19 19 19 18 16 15 15 14 14 14 14 15 16 16 15 15 15 16 15 14 13 12 11 11 12 12 11 11 11 11 11 12 12 11 10 12 13 14 16 17 18 20 21 23 24 24 25 26 31 34 32 28 27 26 23 23 23 23 23 24 25 25 25 26 25 26 26 26 26
17 18 18 18 19 19 19 18 17 18 21 24 25 25 24 23 22 21 21 21 19 18 18 17 15 14 14 15 16 17 17 16 17 18 17 16 16 16 16 16 16 15 15 14 14 12 11 11 10 8 9 10 10 10 10 10 11 12 13 15 17 17 19 22 26 31 32 28 24 24 22 21 22 23 23 23 24 24 24 26 27 28 29 29 29
13 14 15 16 17 17 17 17 18 20 22 22 22 23 24 25 25 23 23 23 22 21 20 19 17 16 15 15 16 17 17 17 17 18 18 18 18 18 18 19 18 18 18 18 16 15 14 14 13 11 11 13 13 12 12 12 12 13 13 13 14 15 15 17 21 25 28 27 25 24 23 21 22 24 23 23 23 24 24 24 24 25 27 30 31
10 11 13 14 14 14 14 15 17 21 22 21 20 20 21 23 25 26 25 25 23 22 22 21 19 19 19 18 18 18 18 18 18 20 21 21 21 20 20 20 20 20 21 20 19 17 17 18 17 15 14 15 16 16 16 16 17 17 17 17 17 17 17 18 20 22 25 28 28 27 26 26 26 26 25 25 25 25 26 26 25 25 25 27 29
10 10 10 10 11 12 13 13 14 15 15 15 14 15 15 17 19 21 22 22 23 23 23 22 21 21 22 21 21 21 21 23 24 25 25 25 25 24 24 24 24 23 23 22 21 20 19 20 20 18 18 20 21 20 19 20 20 21 22 22 21 22 22 21 22 23 24 27 29 28 28 29 30 29 29 30 30 30 30 30 30 29 28 27 29
7 7 7 8 9 10 11 11 10 9 8 7 7 8 10 11 12 11 11 12 16 19 21 22 22 22 23 24 24 24 24 24 25 25 25 26 27 27 25 25 25 26 27 25 24 22 21 22 22 21 21 23 24 23 22 22 22 22 23 24 24 25 26 27 27 27 27 28 30 30 29 28 29 29 30 30 32 33 33 34 34 32 32 31 30
4 5 5 6 7 8 8 7 6 5 5 5 5 6 7 8 7 6 5 5 7 9 13 15 17 19 21 21 22 23 24 24 24 24 24 25 27 27 25 25 25 26 27 28 28 26 25 25 24 24 24 24 24 24 24 24 24 24 24 25 24 25 26 28 30 31 32 32 33 33 33 31 30 31 30 30 30 31 33 35 35 34 33 33 32
5 6 6 5 6 6 6 5 4 4 6 6 5 5 5 6 6 5 5 5 5 6 8 10 12 14 15 16 16 17 19 20 22 23 24 25 27 27 26 26 26 24 23 26 29 29 28 27 26 25 25 24 24 24 25 25 25 25 26 27 27 27 27 28 29 30 32 34 35 35 35 35 35 35 34 33 34 34 33 34 35 35 35 36 36
6 7 6 5 4 4 4 4 3 3 4 4 4 4 5 6 6 5 5 6 6 7 9 10 11 13 14 15 15 14 14 14 15 16 18 21 23 24 24 24 23 21 21 25 29 29 28 28 27 27 26 24 23 23 23 24 25 25 25 26 27 28 29 28 28 28 30 31 33 34 36 38 38 38 38 36 36 37 35 35 36 37 37 39 40
4 5 4 3 2 3 3 3 2 2 3 3 4 5 6 6 5 6 7 8 7 7 9 10 10 12 13 13 14 14 13 13 13 13 15 17 19 21 23 23 23 23 22 24 26 26 26 25 25 25 25 24 23 22 22 24 25 26 26 25 25 26 27 27 28 29 30 32 34 34 37 39 38 38 39 38 38 38 38 38 38 37 38 41 43
4 3 2 2 2 4 5 5 4 4 5 5 5 5 5 6 6 7 7 8 7 7 8 9 9 11 12 13 14 14 14 13 13 13 14 16 17 18 20 21 22 24 25 26 27 27 26 24 22 22 23 24 24 24 24 24 26 27 27 25 24 24 26 27 28 30 32 34 36 37 39 41 41 40 40 41 41 41 41 40 39 39 39 41 42
3 2 2 2 1 2 2 2 3 3 4 4 3 4 4 5 6 7 7 8 8 8 9 9 10 11 12 13 13 13 13 13 13 13 13 14 14 14 15 16 17 19 22 24 26 27 27 26 26 25 24 23 24 24 24 25 25 27 27 26 26 26 26 28 30 31 31 31 33 35 37 39 41 41 41 41 41 42 43 42 40 40 41 41 42
3 3 2 2 3 4 3 2 2 2 1 1 1 1 2 3 4 4 5 5 5 5 6 7 7 8 8 8 9 10 10 10 10 11 12 12 12 13 13 13 14 15 16 18 21 23 23 23 25 27 26 25 26 26 27 28 28 29 30 30 31 32 31 32 34 34 33 32 33 35 36 36 38 39 38 38 38 38 38 39 37 37 39 40 41
5 5 4 2 2 3 3 3 4 5 5 4 3 1 1 2 3 3 3 4 4 3 3 4 4 5 5 6 7 9 10 11 11 12 12 13 13 13 13 13 13 13 13 15 16 17 18 18 20 22 23 24 25 27 28 29 30 31 32 31 32 33 33 32 33 33 33 34 35 36 37 35 36 38 36 35 36 36 34 33 33 33 36 37 39
7 7 6 5 4 3 2 3 4 5 6 5 4 4 4 4 5 4 4 4 4 3 3 3 4 5 6 7 7 9 10 10 11 11 11 11 10 11 11 11 12 13 13 14 15 15 16 16 16 17 18 19 20 21 22 23 24 26 27 27 27 28 26 26 27 29 29 31 33 33 33 33 35 36 34 33 35 35 32 30 29 31 33 35 35
9 9 7 6 6 5 5 6 7 8 9 9 9 10 10 10 10 9 8 7 7 6 5 3 3 4 4 5 6 6 7 7 8 8 8 8 9 9 8 8 8 9 11 12 13 13 13 13 14 15 15 16 17 18 19 20 20 21 22 22 23 24 24 24 26 27 28 29 29 28 27 26 27 27 25 24 25 25 24 24 24 26 27 26 24
10 10 9 8 8 8 8 9 11 13 14 14 15 15 14 15 16 14 12 11 11 10 8 7 7 6 5 5 6 6 7 8 9 9 9 9 9 8 7 7 7 7 8 9 9 9 10 10 11 13 14 14 16 17 18 18 18 18 19 18 18 19 20 21 22 22 22 21 20 19 18 18 19 19 18 18 16 15 15 16 16 17 16 15 14
11 10 9 8 7 7 7 8 9 11 13 15 17 17 17 18 18 17 15 14 12 11 9 9 9 9 9 8 8 8 9 10 10 10 9 9 9 9 9 7 7 8 9 9 9 9 9 9 9 10 11 11 12 13 14 14 14 14 14 14 14 14 14 13 14 14 15 15 15 16 16 16 16 15 14 13 12 11 11 11 10 10 9 9 10
11 10 9 7 5 5 5 6 7 9 11 14 16 16 17 17 17 17 18 17 15 14 12 11 11 13 13 12 10 10 11 12 12 11 11 11 12 12 11 10 11 12 13 13 12 11 10 9 9 10 11 11 11 12 12 12 12 12 12 11 11 10 10 10 10 9 9 9 9 9 10 9 9 9 9 9 9 9 9 8 8 7 7 6 5
11 10 9 8 6 5 5 6 6 7 9 10 12 12 13 13 13 14 15 16 17 16 15 15 15 16 16 15 14 13 13 13 13 13 12 13 13 13 12 12 13 13 12 12 12 12 12 13 14 16 17 17 17 16 16 15 15 14 12 11 11 11 11 11 11 10 8 8 8 7 7 7 8 8 8 8 8 9 9 8 8 7 7 6 6
9 10 10 9 8 6 6 6 6 6 7 8 9 10 10 10 10 10 10 11 13 13 13 14 14 15 15 15 15 14 14 13 13 13 13 13 14 14 14 15 15 13 12 13 14 15 16 17 18 19 19 20 20 20 20 20 20 19 18 17 16 14 13 11 11 10 10 10 11 11 11 11 11 11 12 13 13 13 13 12 12 11 10 9 9
9 9 10 10 10 9 8 7 6 5 5 6 8 10 10 9 9 9 8 7 8 8 8 9 10 11 12 12 13 14 14 13 12 11 11 12 13 14 16 17 17 15 15 16 17 17 17 17 17 17 17 17 17 18 18 19 20 20 20 20 19 17 15 14 14 13 13 13 13 14 14 14 14 14 15 15 15 15 14 14 13 13 12 11 10
9 10 10 10 10 11 11 11 9 8 7 6 7 8 8 8 9 9 7 6 6 6 6 6 6 8 9 9 11 12 12 12 12 11 10 8 9 11 13 14 14 12 12 13 13 14 14 14 14 14 14 14 14 15 15 15 17 18 18 17 17 16 16 15 13 13 13 14 14 13 13 13 14 14 13 13 12 12 12 11 11 10 9 8 8
6 7 8 8 8 8 9 10 10 9 9 8 7 6 6 6 7 8 8 7 7 7 8 7 6 7 7 8 9 11 11 12 13 13 11 7 4 5 6 8 8 8 8 9 9 9 9 10 10 11 11 11 11 11 12 12 13 14 15 14 14 14 13 12 11 11 11 11 12 12 12 11 11 12 12 12 11 11 9 9 9 9 8 8 9
3 3 3 4 5 5 6 7 7 7 7 8 9 8 8 8 9 8 7 8 9 10 10 9 7 7 8 9 11 12 13 13 13 14 13 9 4 2 2 3 4 4 4 5 5 5 5 6 7 7 8 8 8 8 9 9 9 10 10 11 12 11 11 11 10 9 9 10 10 10 10 10 10 11 11 12 13 11 8 7 8 8 8 9 10
3 2 2 2 2 4 4 5 6 5 5 5 7 8 9 9 10 10 9 9 9 9 10 10 9 9 10 11 13 13 14 14 14 15 15 11 5 2 2 4 4 3 2 1 1 1 2 3 4 4 5 5 5 5 5 5 5 6 6 7 8 9 10 10 9 8 8 9 9 9 9 9 9 9 9 11 13 12 8 7 8 8 7 6 7
2 2 3 3 2 3 4 4 5 6 5 5 6 6 8 9 9 10 9 9 10 10 9 8 9 9 9 10 12 13 14 15 15 15 15 13 8 5 4 5 5 4 3 2 3 3 4 4 4 4 5 6 6 6 5 4 3 2 2 4 5 6 8 9 8 8 8 10 10 8 8 9 9 8 8 9 11 11 9 9 8 8 6 5 5
1 1 3 5 4 4 4 4 4 5 6 6 7 8 8 9 10 10 10 8 8 9 10 9 8 9 8 8 9 10 10 11 12 13 13 12 9 7 7 7 7 6 5 5 6 6 6 6 7 7 8 9 10 11 10 9 7 5 3 2 3 3 5 6 7 7 9 10 10 8 8 9 10 8 6 6 8 8 8 8 8 9 8 6 5
3 4 5 7 7 5 5 5 5 5 5 6 7 7 8 8 10 10 11 10 9 8 9 9 8 8 9 8 7 7 7 7 8 9 10 10 9 8 7 7 7 7 7 7 8 8 9 9 9 9 10 11 13 14 15 14 13 10 8 5 3 2 2 3 5 6 8 9 9 9 8 8 9 9 8 6 6 7 7 7 8 8 8 7 6
6 7 9 9 7 5 4 5 6 6 6 6 7 7 7 8 9 10 11 12 12 11 10 11 11 10 10 9 8 7 7 7 8 8 8 9 10 9 8 8 7 7 8 10 11 11 12 12 12 12 13 14 15 17 18 17 15 14 12 10 7 3 0 2 5 6 6 6 7 8 7 6 7 8 8 6 5 5 5 5 5 4 5 6 5
8 8 8 8 8 6 5 6 7 8 7 8 9 8 8 9 10 11 11 11 11 12 13 13 13 14 14 13 12 10 9 8 8 8 8 9 11 11 11 10 9 8 8 11 12 12 11 11 11 11 11 11 12 13 15 14 13 12 13 14 13 8 3 3 4 5 5 4 4 5 5 5 4 4 5 4 2 1 1 2 3 4 4 5 4
10 9 10 10 10 9 7 7 8 10 10 10 11 11 11 13 14 14 14 13 14 14 15 15 15 16 17 17 16 14 12 11 9 8 8 9 10 12 12 12 11 10 9 9 10 10 8 6 5 5 6 7 8 7 8 8 8 9 9 10 11 10 6 4 3 2 2 3 4 4 5 4 3 3 3 3 3 4 4 4 5 6 6 4 5
12 12 12 12 13 12 10 9 11 13 12 12 12 14 15 17 17 16 16 17 18 19 19 19 19 18 18 20 20 18 16 14 12 9 7 7 8 9 10 12 13 12 9 8 8 8 7 5 4 4 5 6 7 6 4 2 1 3 5 6 6 7 7 5 4 4 3 3 5 6 7 7 6 6 6 6 6 7 8 8 9 10 8 5 4
15 14 15 15 15 15 13 12 13 14 14 14 15 16 17 18 18 18 19 19 20 21 22 21 19 18 18 19 21 21 20 18 15 12 9 8 8 8 8 9 11 11 10 9 8 8 8 8 8 7 6 6 6 5 4 4 5 3 1 3 5 8 10 10 8 7 7 7 8 7 8 9 10 9 9 9 10 11 12 13 12 11 9 7 5
16 17 17 17 17 16 16 16 16 16 16 17 17 17 18 18 18 19 20 21 21 21 20 18 16 16 18 18 18 19 20 21 19 15 12 11 11 10 9 9 10 11 10 10 10 11 11 10 10 10 10 9 9 8 6 5 6 8 8 5 2 3 7 8 8 8 9 8 6 5 5 6 7 7 6 6 7 8 10 11 11 9 7 7 8
19 19 20 20 20 19 19 19 19 19 18 18 18 20 21 21 21 21 21 22 23 22 20 18 17 18 18 18 18 18 19 22 22 18 15 15 14 11 10 10 11 12 13 14 15 14 12 10 10 10 10 11 11 11 11 10 10 12 14 14 10 6 4 4 5 5 5 5 4 3 2 2 4 5 4 4 4 4 5 6 6 5 5 7 9
21 22 23 24 24 24 24 24 25 25 24 23 22 22 22 24 24 24 24 24 25 24 23 23 22 21 21 20 19 18 18 21 23 20 18 18 16 13 11 10 11 12 14 16 17 15 11 9 9 9 9 9 10 10 10 10 10 11 13 14 13 10 8 7 7 7 7 6 6 5 4 3 3 4 5 5 5 5 5 5 5 4 4 4 5
24 25 27 28 29 29 29 29 29 29 29 28 28 28 28 28 28 28 28 28 28 28 28 27 26 25 24 22 20 18 17 19 22 22 21 21 18 15 13 13 13 14 14 13 13 12 10 9 8 8 8 8 9 8 9 9 10 10 11 11 11 10 10 10 11 12 12 11 10 9 9 9 9 8 8 8 8 8 8 7 7 7 6 6 6
25 27 28 30 32 34 35 36 36 36 35 35 34 34 33 33 33 34 34 33 31 29 28 27 27 28 28 26 24 21 18 18 23 25 24 20 18 16 16 16 15 14 12 10 9 9 8 8 8 8 8 8 8 9 10 11 13 14 14 13 12 11 10 11 13 14 13 11 11 11 12 13 13 13 13 12 12 12 11 11 10 10 10 10 11
17 19 20 22 24 27 29 31 33 35 37 38 39 38 38 38 39 39 39 38 35 32 31 30 29 28 28 28 27 25 20 19 23 26 23 19 18 18 17 16 15 13 10 7 7 7 8 8 8 9 10 10 10 11 12 14 16 17 16 15 13 12 12 11 12 12 11 11 11 12 13 14 14 15 14 13 12 12 11 11 10 10 10 11 12
16 18 18 19 19 21 21 21 23 24 26 28 30 32 35 36 36 37 38 37 36 34 33 31 31 31 31 30 29 27 23 18 20 25 24 20 19 19 17 16 15 12 8 7 6 7 8 8 8 9 10 11 12 14 15 16 18 17 15 14 13 13 12 12 11 10 10 11 13 14 15 15 16 16 15 14 13 11 11 10 9 10 10 10 11
21 23 24 24 24 25 25 25 26 26 26 26 27 28 29 29 29 31 34 34 34 34 34 32 32 33 33 31 29 28 25 20 21 25 24 21 19 19 17 15 12 8 5 4 4 6 7 8 8 9 10 12 14 16 17 19 19 17 14 14 14 14 13 11 10 10 10 12 13 15 16 17 18 18 17 15 13 12 11 10 10 9 10 10 11
27 28 29 29 29 30 31 31 30 30 29 27 27 27 27 28 28 30 32 33 34 34 35 34 32 30 28 28 29 28 25 22 22 23 22 20 19 17 14 11 8 6 4 2 3 5 6 7 9 10 12 14 17 18 18 18 18 16 15 15 14 13 12 11 11 12 13 14 15 17 18 19 19 19 18 16 13 11 10 10 10 10 10 11 11
30 31 32 32 33 33 33 34 34 33 31 29 28 27 27 27 28 29 30 31 31 33 35 37 36 31 26 23 24 24 23 23 24 23 21 21 19 16 12 10 9 7 6 6 6 6 7 9 10 12 14 16 18 18 18 17 16 16 16 15 13 12 12 12 13 14 16 17 17 18 19 19 20 19 17 14 12 10 10 10 10 10 11 12 13
31 32 32 33 33 34 34 33 33 33 32 31 31 29 27 25 25 26 27 28 29 30 32 33 33 31 24 19 21 25 24 23 23 24 23 23 21 17 14 13 12 11 11 12 11 10 10 11 13 13 14 15 15 16 16 16 16 16 16 15 13 12 12 13 14 16 17 17 18 20 20 21 20 18 16 13 11 10 10 9 10 10 11 13 13
32 31 31 31 31 31 32 31 31 31 30 30 30 30 28 26 24 24 24 24 26 27 27 27 28 29 28 27 30 30 25 23 24 24 24 23 21 18 16 15 13 12 14 14 14 13 12 11 11 12 12 12 12 13 14 15 15 16 15 15 13 12 13 14 16 17 17 18 19 20 20 19 19 18 16 15 13 12 11 11 11 11 11 11 12
32 32 31 30 29 29 28 28 28 28 27 27 27 28 28 27 26 26 25 23 23 25 24 23 24 25 26 28 29 26 24 24 23 22 21 20 17 14 13 13 13 13 13 12 13 14 14 11 11 11 11 11 12 13 14 16 15 14 12 11 12 12 13 14 16 17 17 18 19 18 18 18 18 18 18 17 15 14 13 13 13 13 13 12 13
31 29 28 27 27 26 26 27 27 28 28 29 29 29 29 29 30 29 26 22 21 22 21 20 19 18 17 16 17 20 23 22 19 17 15 14 11 9 9 11 12 12 11 10 10 11 11 11 12 13 14 13 14 15 16 16 14 12 10 10 11 12 14 15 16 17 19 19 18 17 16 17 18 18 18 17 16 16 15 14 15 15 15 14 14
28 26 26 27 27 26 26 26 26 27 27 28 29 29 29 29 28 26 22 18 18 18 17 14 12 11 11 11 14 17 17 16 14 11 8 7 7 9 10 10 8 8 9 8 7 8 10 12 14 15 16 17 18 18 17 16 14 13 13 14 14 15 16 17 18 19 20 20 18 17 17 18 18 17 17 17 16 16 16 15 15 15 16 16 16
25 25 26 27 27 26 26 26 26 25 24 24 24 23 22 21 20 18 16 13 12 12 10 6 4 5 6 8 10 12 11 10 10 9 8 7 8 11 12 9 8 8 8 7 7 9 12 13 14 15 16 17 18 17 16 16 15 15 17 19 19 20 20 20 19 20 19 19 18 17 18 18 17 17 17 17 16 16 16 15 16 16 15 16 16
24 24 25 25 25 25 26 26 26 26 24 23 22 20 18 17 16 14 11 9 7 6 6 5 4 5 7 9 10 10 9 9 8 7 6 7 8 8 7 7 8 10 10 9 9 10 11 12 14 14 15 16 17 16 17 17 18 20 22 23 23 22 20 18 16 16 16 17 17 17 17 17 17 17 17 16 15 15 15 16 17 18 18 17 17
Wind_Direction
231 233 237 240 243 246 246 245 245 247 245 245 246 247 248 249 249 248 247 254 264 267 268 269 264 264 265 264 263 264 266 269 273 275 275 277 281 284 284 284 288 291 290 289 295 294 283 273 272 273 276 278 278 273 268 264 263 261 259 259 260 261 263 265 268 270 272 274 276 278 279 280 278 275 272 268 263 263 264 262 260 258 257 257 260
234 238 242 245 248 249 249 249 251 252 248 246 245 246 249 250 252 251 244 244 251 258 262 264 261 260 263 265 266 268 269 268 271 275 275 274 275 278 278 279 282 285 284 284 288 292 291 288 289 291 290 291 295 296 292 289 286 281 277 272 270 270 269 269 270 271 274 276 277 278 278 278 277 275 277 277 274 273 270 265 262 261 259 260 261
238 244 248 250 251 249 246 247 254 256 255 254 253 253 253 252 254 253 248 246 247 250 255 258 256 256 259 262 264 267 268 268 272 276 275 273 273 275 275 274 275 278 279 280 282 284 285 288 292 294 292 291 292 295 296 297 295 293 294 291 288 288 284 279 276 276 279 281 280 278 276 278 278 275 278 282 282 282 281 277 274 269 263 260 260
241 242 245 246 243 241 243 251 259 258 258 260 262 262 259 254 254 255 255 256 252 250 253 254 251 251 254 258 261 263 264 265 270 275 274 272 271 274 277 276 274 275 276 276 277 277 279 284 288 290 288 288 289 290 290 290 290 289 291 291 290 291 292 287 283 283 284 285 285 283 279 279 279 278 279 280 281 283 284 284 283 280 272 264 261
234 230 236 241 240 243 249 256 261 261 260 262 264 267 267 262 261 262 264 262 258 255 256 253 247 245 247 249 253 257 259 260 263 267 268 267 266 269 275 276 274 274 274 273 271 273 276 279 283 287 286 285 285 286 285 286 288 288 288 288 287 289 290 288 285 285 284 286 290 291 287 282 281 281 282 282 282 283 283 284 285 284 280 272 266
229 225 235 245 245 245 247 249 256 262 263 260 260 267 269 265 266 269 269 266 263 261 259 256 251 249 249 248 247 250 253 255 256 258 261 262 261 263 268 272 273 273 272 269 267 271 274 275 278 282 282 281 280 280 281 283 284 284 285 287 289 289 288 287 285 283 282 285 290 292 291 288 286 287 289 288 288 287 286 284 283 282 281 277 273
206 207 222 233 236 238 240 243 253 260 253 244 238 241 249 254 260 268 274 281 283 279 274 270 266 263 262 259 253 251 252 254 253 254 257 258 258 260 263 268 272 274 273 266 263 268 274 275 277 279 279 278 277 277 279 279 279 279 278 279 281 282 283 284 284 282 281 282 285 288 291 291 290 290 292 293 292 291 289 286 284 282 281 280 280
181 192 199 197 196 199 200 199 199 206 214 217 220 224 235 246 253 264 281 290 291 285 281 281 279 277 277 277 274 268 265 266 265 263 262 262 263 264 266 269 270 273 274 265 258 263 271 274 276 277 278 278 277 278 278 276 276 278 280 278 276 275 276 278 280 281 280 280 281 283 285 287 288 288 290 290 289 290 291 290 288 286 284 283 282
169 181 185 187 188 186 186 192 195 201 211 221 230 234 238 244 254 268 274 271 266 263 264 270 276 280 283 284 287 290 290 289 285 278 272 268 267 267 268 269 268 269 269 261 256 260 267 271 274 277 279 278 275 276 278 278 279 282 286 285 282 279 278 277 277 279 282 281 280 281 282 283 285 286 287 286 287 289 292 291 289 288 287 286 284
169 178 186 207 243 262 270 274 267 250 246 252 252 252 258 268 278 277 267 261 262 266 269 273 277 280 281 283 287 291 292 288 284 279 274 271 270 269 268 267 264 262 262 260 258 260 263 267 272 276 278 277 274 273 275 278 280 282 282 281 278 278 279 278 276 278 282 282 280 280 281 281 283 285 286 288 289 288 288 286 285 286 286 285 284
132 137 156 206 261 276 280 284 286 280 276 276 275 279 288 292 286 277 272 275 281 281 278 275 272 272 274 277 280 281 283 285 285 282 278 277 277 277 275 272 266 262 261 263 264 265 265 266 270 274 276 278 278 277 275 274 274 276 277 275 274 276 279 282 281 281 281 281 281 281 280 280 281 283 285 287 287 286 286 285 284 284 285 283 283
119 114 97 67 13 330 287 270 277 281 282 287 296 294 288 279 275 279 283 288 291 289 285 280 274 273 274 277 281 285 289 292 290 288 289 289 289 289 287 285 280 274 270 269 270 271 271 271 271 271 274 275 276 275 273 270 269 270 271 272 272 273 276 280 283 283 282 282 282 280 278 279 280 281 283 284 284 284 285 285 284 284 284 282 281
101 100 87 34 24 44 53 50 63 82 84 60 18 285 264 258 262 273 281 286 292 297 299 298 293 289 289 292 299 305 306 306 301 298 300 302 303 304 302 298 293 287 282 278 277 278 280 278 275 273 273 273 271 269 269 269 269 269 270 271 274 276 277 278 281 283 284 285 284 282 282 281 281 282 282 281 281 282 283 283 284 284 282 281 282
110 102 97 88 67 58 35 23 44 55 53 50 44 6 282 281 276 272 282 297 307 314 320 330 330 321 315 316 321 321 319 317 314 311 310 310 308 308 305 302 298 292 286 283 281 283 286 288 285 283 281 279 278 277 277 277 276 276 277 278 279 280 281 281 283 285 286 286 286 286 286 285 284 284 283 278 277 279 280 282 284 284 284 285 285
111 111 107 108 108 93 57 38 41 36 34 36 34 27 17 358 341 334 337 341 347 359 4 348 336 327 323 326 324 321 319 320 321 324 325 324 324 321 316 309 301 294 290 289 289 290 294 298 300 299 298 298 297 295 294 292 290 289 290 290 290 290 291 291 289 288 288 288 289 292 292 289 287 286 282 276 273 274 275 275 277 280 282 283 283
95 107 106 102 100 95 87 84 78 66 58 55 50 46 41 37 33 29 28 31 35 41 46 34 12 358 348 345 337 330 332 336 341 346 348 348 349 346 342 335 321 311 304 301 301 303 306 311 313 313 314 314 314 314 313 312 310 308 306 304 301 298 295 293 291 290 290 291 292 294 293 290 287 287 286 282 277 274 274 275 276 278 280 282 286
86 103 104 96 97 101 99 92 85 75 64 55 52 53 56 59 59 56 53 57 61 61 62 65 62 50 34 22 11 2 359 356 353 352 352 352 353 351 352 349 342 337 334 328 325 326 329 332 330 328 328 326 324 322 321 321 321 317 314 312 308 301 295 294 294 294 296 296 295 294 296 298 299 302 305 305 301 296 293 292 291 290 290 291 295
78 98 106 106 105 101 93 83 79 73 63 56 55 59 63 66 66 64 61 61 64 63 59 60 58 48 37 28 18 10 8 5 3 3 5 10 15 17 18 16 14 17 18 18 19 15 11 8 360 350 345 342 340 337 335 335 334 331 329 327 322 316 314 311 307 303 302 302 299 299 304 311 315 315 315 317 319 318 315 314 314 312 310 306 302
68 81 92 106 114 102 85 71 67 66 64 60 59 61 64 64 62 60 57 58 63 66 63 60 58 53 48 42 35 27 23 23 23 24 29 35 37 36 37 39 42 43 43 45 46 43 38 34 28 23 18 14 9 4 0 358 356 353 352 349 346 348 353 354 352 344 334 326 322 320 322 327 333 334 335 336 336 337 338 340 342 344 346 345 342
63 69 75 87 100 98 83 67 57 57 56 54 55 57 59 58 56 51 48 50 53 55 56 55 53 52 49 45 40 36 31 28 29 34 41 47 48 47 47 49 49 49 52 57 60 60 60 58 56 54 50 45 42 37 34 31 27 24 23 19 21 26 27 25 23 22 21 17 14 13 13 14 12 9 8 9 10 14 19 21 20 19 20 27 36
59 66 70 72 77 81 74 60 52 54 50 41 38 40 41 45 46 44 41 39 38 42 47 46 42 41 40 37 33 33 31 27 27 32 41 52 59 60 60 62 64 68 73 76 75 74 73 69 65 61 57 53 49 45 42 41 40 39 39 40 41 42 40 38 37 37 39 40 40 41 43 44 45 46 47 48 49 50 52 52 53 55 57 61 66
52 62 71 71 70 70 68 60 50 45 38 22 16 18 21 22 22 25 30 26 19 23 32 37 33 29 28 26 23 26 29 28 25 26 35 52 68 75 76 78 81 83 84 82 77 73 70 66 62 58 56 54 51 46 42 40 40 41 41 43 45 46 45 47 51 55 57 58 57 56 55 55 54 52 51 49 48 49 52 53 54 56 58 61 66
48 52 61 64 61 60 60 60 55 47 35 18 4 1 2 358 354 358 6 8 1 355 354 4 13 12 10 10 8 10 19 26 24 20 22 41 67 82 90 94 94 91 86 81 77 73 69 65 60 55 52 53 53 51 46 41 40 42 42 42 41 40 41 46 52 59 62 61 59 56 54 52 49 47 44 40 38 38 39 40 41 41 45 53 60
50 48 48 45 43 43 45 46 45 43 37 30 25 19 8 353 339 334 333 336 338 335 331 331 337 344 344 345 347 349 356 7 12 11 7 13 43 73 87 92 88 82 79 76 78 78 73 66 61 56 52 50 48 48 48 45 43 43 43 41 39 36 35 37 43 48 49 48 49 50 50 49 49 48 44 37 30 27 30 40 44 45 55 68 72
56 54 36 19 17 22 28 30 29 27 22 19 23 27 23 15 8 357 342 328 318 312 313 317 321 327 328 324 325 331 336 342 350 355 354 353 2 31 27 29 34 42 58 66 72 75 68 60 53 48 47 45 40 39 42 44 45 45 43 40 37 34 29 28 33 38 35 33 36 41 44 48 54 54 48 37 26 19 24 45 53 53 66 75 70
34 34 359 328 331 344 358 15 21 12 355 347 1 12 11 7 6 6 3 355 339 320 309 308 310 311 312 313 315 319 324 327 330 335 337 336 333 328 330 340 347 344 342 29 58 42 28 23 21 21 21 19 15 14 20 27 33 37 40 37 34 32 28 25 24 24 24 26 28 30 34 41 50 54 47 35 27 26 38 56 58 59 69 68 57
353 354 338 326 297 303 325 349 10 7 345 316 316 340 353 353 350 348 349 356 0 356 342 328 324 319 310 307 309 313 318 320 319 321 324 321 314 307 312 323 330 330 314 294 293 301 309 318 323 326 328 326 322 319 318 320 330 348 9 21 23 26 30 29 21 14 22 29 27 24 27 32 39 49 54 48 41 43 55 62 58 56 55 44 34
327 300 330 330 310 281 290 308 333 350 346 332 322 323 333 340 341 337 332 331 343 355 356 352 351 348 338 325 320 323 327 327 323 317 312 308 302 299 304 311 320 325 317 303 296 292 291 296 301 306 311 312 308 304 299 293 288 283 279 307 353 14 31 36 31 28 37 40 33 26 29 34 35 40 55 64 57 50 51 51 46 44 40 31 22
286 276 292 310 313 294 276 281 295 307 313 322 329 328 328 332 332 331 328 322 318 327 338 340 339 340 341 336 333 337 344 347 340 324 307 294 286 285 290 297 304 312 317 315 308 297 291 292 295 298 301 303 300 296 293 289 285 279 273 274 290 333 28 60 67 65 60 52 44 40 42 45 43 41 45 58 61 53 46 42 42 41 33 24 19
305 299 292 292 301 308 296 285 283 285 290 297 306 313 321 323 321 321 322 317 309 306 312 320 320 317 317 316 312 316 326 335 339 332 311 289 276 272 277 284 288 296 313 325 322 308 294 289 290 295 299 300 296 291 286 282 277 274 273 271 271 276 223 120 107 92 79 57 45 45 48 52 53 47 45 50 58 61 54 39 33 32 21 15 10
333 334 320 301 295 304 316 307 289 278 281 291 293 294 301 306 305 306 309 311 308 301 298 303 308 308 306 301 295 293 299 308 320 326 315 294 278 272 274 278 281 289 310 328 333 324 307 293 290 297 309 314 309 297 287 279 272 271 272 269 265 263 232 156 132 105 83 52 31 32 35 40 50 49 41 35 31 43 40 357 340 328 333 348 351
334 340 339 330 318 310 305 300 290 278 275 282 286 286 293 302 302 298 293 291 293 293 292 293 297 299 299 297 290 285 284 288 295 304 305 294 284 280 277 274 274 284 304 328 344 344 333 314 300 315 336 346 346 328 299 277 265 261 258 251 252 254 240 187 168 140 70 28 0 341 333 334 331 325 328 322 307 294 283 292 304 305 306 335 6
321 326 329 331 329 324 308 287 278 275 272 275 280 285 293 303 307 306 302 294 287 283 283 287 289 288 289 291 289 284 279 275 276 281 283 279 279 282 281 275 270 274 289 311 329 336 339 335 334 348 1 6 9 6 355 339 294 238 215 201 214 231 225 207 208 223 241 284 299 295 289 280 273 278 286 287 287 287 287 293 299 294 285 293 346
309 313 317 319 321 324 319 304 292 288 284 282 282 285 293 300 304 308 311 308 296 284 279 281 283 281 282 289 291 286 277 267 264 265 259 249 253 262 270 274 270 265 271 287 298 304 308 309 308 315 326 335 345 356 7 22 35 41 101 177 194 210 213 216 229 246 256 267 273 272 266 259 257 265 278 282 279 277 280 287 292 288 277 273 293
298 303 308 310 310 311 312 308 304 303 300 296 293 291 293 297 299 302 307 310 306 294 281 274 274 278 284 289 291 285 274 263 257 254 244 234 240 248 252 261 267 262 262 273 282 283 284 285 287 291 294 299 305 312 321 334 356 7 5 357 342 213 216 230 252 267 271 272 271 264 259 254 247 249 269 286 288 283 281 282 283 283 274 264 266
290 293 297 300 301 302 301 299 297 298 298 298 298 296 296 298 299 299 302 306 309 304 291 277 271 273 279 285 286 283 273 259 251 245 235 230 238 247 252 259 267 267 267 270 271 271 270 269 272 277 282 288 294 298 300 303 307 314 316 315 316 316 295 282 294 294 282 275 271 263 259 242 226 231 255 279 292 300 296 285 276 271 263 258 260
287 288 291 294 296 297 296 293 291 290 288 288 287 288 291 294 295 296 297 298 301 302 298 292 284 277 275 277 279 282 274 257 244 238 233 231 236 246 260 273 281 280 276 270 264 259 255 253 257 266 275 284 292 298 302 308 311 308 303 301 302 304 302 302 307 304 297 296 298 301 306 302 281 273 277 277 277 281 284 282 271 255 245 249 258
290 289 291 293 294 294 293 293 292 290 288 286 285 283 283 285 287 288 289 288 288 290 292 292 288 283 280 278 279 282 276 254 238 233 232 233 236 247 264 281 287 281 273 264 254 247 246 248 253 264 275 283 293 302 309 318 324 322 317 312 308 305 302 300 300 300 300 300 302 304 308 310 309 305 299 293 290 287 285 285 281 272 264 264 264
298 297 296 296 295 293 292 292 293 292 290 289 288 286 285 285 285 285 283 281 279 278 277 279 281 281 280 280 279 279 275 255 238 232 230 230 236 249 263 272 272 265 259 253 246 245 252 259 267 278 286 291 298 306 313 320 324 324 321 317 312 306 302 299 297 298 302 306 307 307 306 307 310 313 310 304 297 291 288 289 290 288 285 282 280
314 312 310 308 304 301 297 295 295 295 294 293 292 290 288 286 286 285 282 280 278 275 273 273 275 276 279 281 279 276 272 260 241 230 225 227 238 249 255 254 249 244 243 246 250 257 267 274 280 287 294 302 310 316 321 324 325 323 320 317 313 309 306 303 301 303 307 312 314 313 311 310 313 315 313 309 303 296 292 290 289 289 287 285 283
336 333 331 330 328 324 319 314 312 309 304 303 303 301 296 292 290 288 283 280 279 281 279 276 276 276 278 280 278 274 272 263 239 224 223 231 239 240 237 233 233 234 238 247 259 271 280 285 288 292 299 306 312 318 323 325 324 323 320 317 314 310 307 308 311 314 316 315 313 313 314 314 315 315 315 315 312 307 302 298 292 288 287 286 286
332 331 330 329 328 327 325 323 322 319 315 311 311 310 308 304 301 298 293 289 287 287 283 281 283 282 277 274 276 276 272 258 232 222 224 229 228 223 219 220 222 221 220 240 275 291 294 296 297 301 307 311 313 316 319 322 323 322 320 318 315 309 307 312 318 321 320 318 315 314 315 315 316 317 319 321 319 312 306 304 300 295 292 293 295
324 322 322 321 320 320 319 319 320 321 320 318 315 313 313 310 306 303 302 301 299 295 290 287 288 285 275 269 270 268 257 239 224 221 221 217 210 207 206 203 196 187 193 243 287 293 294 298 301 304 308 311 312 314 316 318 319 318 317 317 314 305 303 312 321 322 321 321 319 319 319 318 319 321 323 323 319 310 302 298 298 298 298 299 301
322 319 317 315 313 312 312 312 313 315 317 318 318 317 315 312 309 307 307 307 308 308 304 299 293 285 275 266 257 246 235 228 225 220 211 203 198 197 197 199 198 204 231 257 267 270 281 291 296 299 304 306 307 309 311 313 314 311 311 313 311 299 295 304 313 317 319 321 322 323 324 325 327 329 331 327 318 306 298 297 297 297 299 301 304
324 322 319 316 314 313 312 311 311 312 313 314 315 314 312 310 310 310 310 311 312 311 310 308 297 281 266 254 250 247 239 227 217 208 201 200 201 202 208 217 221 230 249 259 259 262 275 286 291 297 302 303 302 303 305 307 309 308 308 311 312 304 298 303 311 316 318 319 320 322 324 327 330 334 338 337 327 313 305 304 304 305 305 305 307
329 328 326 324 322 320 318 317 315 314 312 311 311 311 309 306 306 308 308 310 312 310 310 314 307 287 269 263 264 257 238 215 207 206 206 208 211 211 216 227 238 253 268 272 268 265 271 284 295 300 300 296 293 295 298 302 305 306 307 311 314 312 309 310 315 317 317 317 317 319 321 325 329 333 338 341 337 325 313 306 303 305 308 308 309
333 333 331 330 329 327 323 321 317 314 312 311 309 308 306 305 306 307 305 307 314 315 314 316 312 297 282 275 267 246 218 205 207 208 205 208 212 213 223 242 259 270 275 277 276 273 272 276 286 290 288 286 287 291 296 300 302 302 304 308 310 310 310 311 312 313 313 315 316 316 316 319 325 329 333 337 338 335 328 318 309 306 307 307 309
337 338 337 336 337 334 329 323 318 314 311 309 308 309 309 309 309 310 310 311 316 316 312 307 300 287 274 260 238 211 197 197 200 200 203 214 220 226 248 269 278 279 276 277 282 283 278 275 278 281 282 287 293 297 300 302 299 293 290 294 297 298 300 302 303 306 309 310 310 309 310 315 321 326 329 332 335 337 336 329 319 311 307 306 307
341 342 342 344 345 345 342 339 335 328 323 319 317 316 316 315 313 313 314 315 312 308 306 302 287 262 240 217 197 189 190 195 199 200 206 219 231 252 269 275 277 284 288 289 287 284 278 273 274 277 281 287 294 298 299 298 292 286 285 289 290 292 295 297 299 302 303 303 303 304 308 314 319 322 325 329 331 333 333 331 325 316 308 303 303
347 348 349 350 351 353 355 357 356 353 350 348 344 338 333 331 328 325 322 317 308 304 307 307 270 234 208 184 178 181 183 182 182 181 183 202 237 262 273 273 270 276 277 267 256 260 266 269 271 276 281 285 289 290 289 287 286 286 289 291 292 293 295 296 297 298 298 297 299 303 308 313 317 320 323 325 327 328 329 330 328 324 317 310 307
357 359 1 3 6 9 11 13 14 16 18 21 20 15 14 17 16 13 16 29 37 38 45 65 108 143 144 141 147 153 155 155 162 179 205 229 247 259 266 269 267 267 264 259 259 264 269 271 272 274 277 279 280 281 282 285 288 292 294 295 293 293 294 295 294 293 292 294 298 303 307 311 316 319 320 323 325 325 326 328 329 328 327 322 318